| time (UTC) | temp F | wind direction | speed MPH | gust MPH | rain 1hr in | rain 24hr in | rain mn in | humidity % | barometer mb |
| 20260508211315 | 62 | 261 | 0.0 | 1.0 | 0.00 | 0.00 | 0.00 | 79 | |
| 20260508210813 | 62 | 313 | 1.0 | 5.0 | 0.00 | 0.00 | 0.00 | 79 | |
| 20260508210310 | 62 | 276 | 1.0 | 2.0 | 0.00 | 0.00 | 0.00 | 78 | |
| 20260508205807 | 63 | 302 | 0.0 | 1.0 | 0.00 | 0.00 | 0.00 | 78 | |
| 20260508205306 | 63 | 318 | 1.0 | 1.0 | 0.00 | 0.00 | 0.00 | 76 | |
| 20260508204759 | 64 | 303 | 2.0 | 5.0 | 0.00 | 0.00 | 0.00 | 74 | |
| 20260508204256 | 64 | 287 | 1.0 | 2.0 | 0.00 | 0.00 | 0.00 | 73 | |
| 20260508203752 | 64 | 215 | 1.0 | 1.0 | 0.00 | 0.00 | 0.00 | 72 | |
| 20260508203248 | 64 | 311 | 0.0 | 2.0 | 0.00 | 0.00 | 0.00 | 71 | |
| 20260508202744 | 65 | 307 | 0.0 | 3.0 | 0.00 | 0.00 | 0.00 | 71 | |
| 20260508202242 | 65 | 281 | 3.0 | 3.0 | 0.00 | 0.00 | 0.00 | 71 | |
| 20260508201739 | 66 | 322 | 0.0 | 1.0 | 0.00 | 0.00 | 0.00 | 70 | |
| 20260508201235 | 66 | 311 | 0.0 | 0.0 | 0.00 | 0.00 | 0.00 | 70 | |
| 20260508200732 | 66 | 329 | 0.0 | 0.0 | 0.00 | 0.00 | 0.00 | 71 | |
| 20260508200228 | 66 | 296 | 0.0 | 0.0 | 0.00 | 0.00 | 0.00 | 72 | |
| 20260508195725 | 65 | 315 | 0.0 | 0.0 | 0.00 | 0.00 | 0.00 | 72 | |
| 20260508195221 | 64 | 317 | 1.0 | 2.0 | 0.00 | 0.00 | 0.00 | 71 | |
| 20260508194718 | 64 | 344 | 0.0 | 0.0 | 0.00 | 0.00 | 0.00 | 71 | |
| 20260508194215 | 64 | 328 | 0.0 | 0.0 | 0.00 | 0.00 | 0.00 | 71 | |
| 20260508193712 | 64 | 325 | 0.0 | 0.0 | 0.00 | 0.00 | 0.00 | 70 | |
| 20260508193208 | 64 | 331 | 0.0 | 0.0 | 0.00 | 0.00 | 0.00 | 70 | |
| 20260508192705 | 64 | 327 | 0.0 | 3.0 | 0.00 | 0.00 | 0.00 | 70 | |
| 20260508192202 | 64 | 327 | 0.0 | 1.0 | 0.00 | 0.00 | 0.00 | 70 | |
| 20260508191659 | 64 | 332 | 1.0 | 2.0 | 0.00 | 0.00 | 0.00 | 69 | |
| 20260508191156 | 64 | 337 | 0.0 | 0.0 | 0.00 | 0.00 | 0.00 | 71 | |
| 20260508190653 | 64 | 322 | 0.0 | 0.0 | 0.00 | 0.00 | 0.00 | 73 | |
| 20260508190149 | 63 | 328 | 0.0 | 0.0 | 0.00 | 0.00 | 0.00 | 73 | |
| 20260508185646 | 63 | 334 | 0.0 | 0.0 | 0.00 | 0.00 | 0.00 | 73 | |
| 20260508185144 | 63 | 327 | 0.0 | 0.0 | 0.00 | 0.00 | 0.00 | 73 | |
| 20260508184641 | 63 | 327 | 1.0 | 2.0 | 0.00 | 0.00 | 0.00 | 72 | |
| 20260508184138 | 63 | 322 | 0.0 | 3.0 | 0.00 | 0.00 | 0.00 | 71 | |
| 20260508183635 | 64 | 335 | 0.0 | 2.0 | 0.00 | 0.00 | 0.00 | 70 | |
| 20260508183130 | 64 | 329 | 0.0 | 0.0 | 0.00 | 0.00 | 0.00 | 70 | |
| 20260508182627 | 64 | 317 | 0.0 | 1.0 | 0.00 | 0.00 | 0.00 | 70 | |
| 20260508182124 | 64 | 332 | 0.0 | 0.0 | 0.00 | 0.00 | 0.00 | 69 | |
| 20260508181619 | 64 | 336 | 0.0 | 0.0 | 0.00 | 0.00 | 0.00 | 69 | |
| 20260508181117 | 64 | 331 | 0.0 | 0.0 | 0.00 | 0.00 | 0.00 | 70 | |
| 20260508180613 | 64 | 335 | 1.0 | 2.0 | 0.00 | 0.00 | 0.00 | 69 | |
| 20260508180110 | 63 | 338 | 0.0 | 0.0 | 0.00 | 0.00 | 0.00 | 70 | |
| 20260508175607 | 63 | 335 | 0.0 | 0.0 | 0.00 | 0.00 | 0.00 | 69 | |
| 20260508175104 | 63 | 315 | 0.0 | 0.0 | 0.00 | 0.00 | 0.00 | 70 | |
| 20260508174601 | 63 | 327 | 0.0 | 0.0 | 0.00 | 0.00 | 0.00 | 69 | |
| 20260508174058 | 64 | 313 | 0.0 | 1.0 | 0.00 | 0.00 | 0.00 | 69 | |
| 20260508173555 | 64 | 341 | 0.0 | 0.0 | 0.00 | 0.00 | 0.00 | 69 | |
| 20260508173051 | 64 | 319 | 0.0 | 0.0 | 0.00 | 0.00 | 0.00 | 69 | |
| 20260508172548 | 63 | 332 | 0.0 | 0.0 | 0.00 | 0.00 | 0.00 | 68 | |
| 20260508172044 | 63 | 339 | 0.0 | 0.0 | 0.00 | 0.00 | 0.00 | 68 | |
| 20260508171541 | 63 | 299 | 0.0 | 0.0 | 0.00 | 0.00 | 0.00 | 69 | |
| 20260508171038 | 62 | 316 | 0.0 | 2.0 | 0.00 | 0.00 | 0.00 | 70 | |
| 20260508170535 | 62 | 317 | 0.0 | 0.0 | 0.00 | 0.00 | 0.00 | 70 | |
| 20260508170032 | 62 | 315 | 0.0 | 0.0 | 0.00 | 0.00 | 0.00 | 71 | |
| 20260508165529 | 61 | 327 | 1.0 | 1.0 | 0.00 | 0.00 | 0.00 | 70 | |
| 20260508165026 | 61 | 329 | 0.0 | 2.0 | 0.00 | 0.00 | 0.00 | 70 | |
| 20260508164522 | 61 | 320 | 0.0 | 0.0 | 0.00 | 0.00 | 0.00 | 70 | |
| 20260508164019 | 61 | 334 | 0.0 | 0.0 | 0.00 | 0.00 | 0.00 | 71 | |
| 20260508163517 | 61 | 321 | 0.0 | 2.0 | 0.00 | 0.00 | 0.00 | 71 | |
| 20260508163013 | 61 | 332 | 0.0 | 0.0 | 0.00 | 0.00 | 0.00 | 70 | |
| 20260508162510 | 60 | 321 | 0.0 | 0.0 | 0.00 | 0.00 | 0.00 | 71 | |
| 20260508162008 | 60 | 320 | 0.0 | 0.0 | 0.00 | 0.00 | 0.00 | 70 | |
| 20260508161504 | 60 | 336 | 0.0 | 0.0 | 0.00 | 0.00 | 0.00 | 70 | |
| 20260508161001 | 61 | 326 | 0.0 | 0.0 | 0.00 | 0.00 | 0.00 | 70 | |
| 20260508160500 | 61 | 337 | 0.0 | 0.0 | 0.00 | 0.00 | 0.00 | 70 | |
| 20260508155956 | 61 | 323 | 0.0 | 0.0 | 0.00 | 0.00 | 0.00 | 70 | |
| 20260508155453 | 60 | 321 | 0.0 | 0.0 | 0.00 | 0.00 | 0.00 | 70 | |
| 20260508154950 | 60 | 334 | 0.0 | 0.0 | 0.00 | 0.00 | 0.00 | 69 | |
| 20260508154448 | 60 | 333 | 0.0 | 1.0 | 0.00 | 0.00 | 0.00 | 69 | |
| 20260508153944 | 60 | 333 | 0.0 | 2.0 | 0.00 | 0.00 | 0.00 | 69 | |
| 20260508153441 | 60 | 329 | 0.0 | 0.0 | 0.00 | 0.00 | 0.00 | 69 | |
| 20260508152937 | 59 | 329 | 1.0 | 1.0 | 0.00 | 0.00 | 0.00 | 69 | |
| 20260508152434 | 59 | 330 | 0.0 | 0.0 | 0.00 | 0.00 | 0.00 | 69 | |
| 20260508151930 | 59 | 333 | 0.0 | 0.0 | 0.00 | 0.00 | 0.00 | 69 | |
| 20260508151427 | 59 | 339 | 0.0 | 0.0 | 0.00 | 0.00 | 0.00 | 69 | |
| 20260508150924 | 59 | 335 | 0.0 | 0.0 | 0.00 | 0.00 | 0.00 | 68 | |
| 20260508150420 | 59 | 325 | 0.0 | 0.0 | 0.00 | 0.00 | 0.00 | 70 | |
| 20260508145916 | 59 | 332 | 0.0 | 0.0 | 0.00 | 0.00 | 0.00 | 69 | |
| 20260508145413 | 59 | 328 | 0.0 | 0.0 | 0.00 | 0.00 | 0.00 | 68 | |
| 20260508144910 | 59 | 355 | 0.0 | 2.0 | 0.00 | 0.00 | 0.00 | 70 | |
| 20260508144408 | 59 | 302 | 0.0 | 2.0 | 0.00 | 0.00 | 0.00 | 69 | |
| 20260508143905 | 58 | 316 | 0.0 | 0.0 | 0.00 | 0.00 | 0.00 | 69 | |
| 20260508143402 | 58 | 324 | 0.0 | 0.0 | 0.00 | 0.00 | 0.00 | 71 | |
| 20260508142859 | 58 | 330 | 0.0 | 2.0 | 0.00 | 0.00 | 0.00 | 69 | |
| 20260508142356 | 58 | 265 | 0.0 | 0.0 | 0.00 | 0.00 | 0.00 | 70 | |
| 20260508141852 | 58 | 339 | 0.0 | 0.0 | 0.00 | 0.00 | 0.00 | 69 | |
| 20260508141349 | 58 | 326 | 1.0 | 3.0 | 0.00 | 0.00 | 0.00 | 69 | |
| 20260508140847 | 58 | 10 | 0.0 | 1.0 | 0.00 | 0.00 | 0.00 | 69 | |
| 20260508140343 | 58 | 347 | 1.0 | 1.0 | 0.00 | 0.00 | 0.00 | 70 | |
| 20260508135839 | 58 | 342 | 1.0 | 5.0 | 0.00 | 0.00 | 0.00 | 69 | |
| 20260508135335 | 58 | 333 | 0.0 | 2.0 | 0.00 | 0.00 | 0.00 | 69 | |
| 20260508134832 | 57 | 338 | 0.0 | 2.0 | 0.00 | 0.00 | 0.00 | 69 | |
| 20260508134328 | 57 | 310 | 0.0 | 1.0 | 0.00 | 0.00 | 0.00 | 69 | |
| 20260508133825 | 57 | 332 | 0.0 | 0.0 | 0.00 | 0.00 | 0.00 | 70 | |
| 20260508133323 | 57 | 339 | 0.0 | 2.0 | 0.00 | 0.00 | 0.00 | 69 | |
| 20260508132820 | 57 | 355 | 2.0 | 5.0 | 0.00 | 0.00 | 0.00 | 68 | |
| 20260508132318 | 57 | 339 | 1.0 | 3.0 | 0.00 | 0.00 | 0.00 | 68 | |
| 20260508131814 | 57 | 330 | 0.0 | 0.0 | 0.00 | 0.00 | 0.00 | 69 | |
| 20260508131310 | 57 | 330 | 1.0 | 3.0 | 0.00 | 0.00 | 0.00 | 69 | |
| 20260508130806 | 57 | 330 | 0.0 | 2.0 | 0.00 | 0.00 | 0.00 | 69 | |
| 20260508130304 | 56 | 333 | 0.0 | 3.0 | 0.00 | 0.00 | 0.00 | 69 | |
| 20260508125800 | 56 | 346 | 1.0 | 1.0 | 0.00 | 0.00 | 0.00 | 70 | |
| 20260508125256 | 56 | 341 | 0.0 | 0.0 | 0.00 | 0.00 | 0.00 | 70 | |
| 20260508124754 | 56 | 355 | 0.0 | 1.0 | 0.00 | 0.00 | 0.00 | 69 | |
| 20260508124251 | 56 | 355 | 0.0 | 0.0 | 0.00 | 0.00 | 0.00 | 70 | |
| 20260508123749 | 56 | 323 | 0.0 | 0.0 | 0.00 | 0.00 | 0.00 | 70 | |
| 20260508123247 | 56 | 326 | 0.0 | 0.0 | 0.00 | 0.00 | 0.00 | 69 | |
| 20260508122743 | 56 | 332 | 0.0 | 1.0 | 0.00 | 0.00 | 0.00 | 68 | |
| 20260508122240 | 56 | 332 | 0.0 | 2.0 | 0.00 | 0.00 | 0.00 | 68 | |
| 20260508121737 | 56 | 333 | 0.0 | 1.0 | 0.00 | 0.00 | 0.00 | 68 | |
| 20260508121236 | 56 | 345 | 0.0 | 0.0 | 0.00 | 0.00 | 0.00 | 69 | |
| 20260508120733 | 56 | 334 | 0.0 | 1.0 | 0.00 | 0.00 | 0.00 | 68 | |
| 20260508120231 | 56 | 337 | 0.0 | 2.0 | 0.00 | 0.00 | 0.00 | 68 | |
| 20260508115728 | 56 | 318 | 0.0 | 2.0 | 0.00 | 0.00 | 0.00 | 68 | |
| 20260508115225 | 56 | 337 | 0.0 | 0.0 | 0.00 | 0.00 | 0.00 | 68 | |
| 20260508114722 | 56 | 337 | 1.0 | 1.0 | 0.00 | 0.00 | 0.00 | 69 | |
| 20260508114218 | 56 | 285 | 0.0 | 1.0 | 0.00 | 0.00 | 0.00 | 68 | |
| 20260508113715 | 56 | 337 | 1.0 | 2.0 | 0.00 | 0.00 | 0.00 | 68 | |
| 20260508113214 | 56 | 352 | 4.0 | 6.0 | 0.00 | 0.00 | 0.00 | 68 | |
| 20260508112709 | 56 | 338 | 1.0 | 3.0 | 0.00 | 0.00 | 0.00 | 67 | |
| 20260508112206 | 56 | 329 | 0.0 | 1.0 | 0.00 | 0.00 | 0.00 | 67 | |
| 20260508111703 | 56 | 354 | 2.0 | 2.0 | 0.00 | 0.00 | 0.00 | 67 | |
| 20260508111201 | 56 | 5 | 0.0 | 2.0 | 0.00 | 0.00 | 0.00 | 67 | |
| 20260508110658 | 56 | 342 | 1.0 | 3.0 | 0.00 | 0.00 | 0.00 | 67 | |
| 20260508110155 | 57 | 328 | 0.0 | 2.0 | 0.00 | 0.00 | 0.00 | 67 | |
| 20260508105655 | 57 | 330 | 0.0 | 2.0 | 0.00 | 0.00 | 0.00 | 67 | |
| 20260508105152 | 57 | 1 | 1.0 | 3.0 | 0.00 | 0.00 | 0.00 | 66 | |
| 20260508104649 | 57 | 347 | 1.0 | 1.0 | 0.00 | 0.00 | 0.00 | 66 | |
| 20260508104146 | 57 | 325 | 0.0 | 0.0 | 0.00 | 0.00 | 0.00 | 67 | |
| 20260508103643 | 57 | 324 | 0.0 | 0.0 | 0.00 | 0.00 | 0.00 | 67 | |
| 20260508103140 | 57 | 321 | 0.0 | 1.0 | 0.00 | 0.00 | 0.00 | 66 | |
| 20260508102637 | 57 | 347 | 1.0 | 1.0 | 0.00 | 0.00 | 0.00 | 66 | |
| 20260508102135 | 57 | 343 | 1.0 | 2.0 | 0.00 | 0.00 | 0.00 | 67 | |
| 20260508101632 | 56 | 13 | 0.0 | 0.0 | 0.00 | 0.00 | 0.00 | 67 | |
| 20260508101130 | 56 | 335 | 0.0 | 0.0 | 0.00 | 0.00 | 0.00 | 67 | |
| 20260508100627 | 56 | 340 | 1.0 | 2.0 | 0.00 | 0.00 | 0.00 | 67 | |
| 20260508100125 | 56 | 325 | 0.0 | 3.0 | 0.00 | 0.00 | 0.00 | 68 | |
| 20260508095621 | 56 | 337 | 1.0 | 2.0 | 0.00 | 0.00 | 0.00 | 67 | |
| 20260508095119 | 56 | 347 | 0.0 | 3.0 | 0.00 | 0.00 | 0.00 | 68 | |
| 20260508094615 | 56 | 341 | 2.0 | 2.0 | 0.00 | 0.00 | 0.00 | 68 | |
| 20260508094112 | 56 | 337 | 1.0 | 3.0 | 0.00 | 0.00 | 0.00 | 68 | |
| 20260508093609 | 56 | 347 | 1.0 | 2.0 | 0.00 | 0.00 | 0.00 | 68 | |
| 20260508093107 | 56 | 339 | 1.0 | 3.0 | 0.00 | 0.00 | 0.00 | 68 | |
| 20260508092604 | 56 | 348 | 0.0 | 0.0 | 0.00 | 0.00 | 0.00 | 67 | |
| 20260508092103 | 56 | 315 | 0.0 | 1.0 | 0.00 | 0.00 | 0.00 | 67 | |
| 20260508091559 | 56 | 339 | 0.0 | 1.0 | 0.00 | 0.00 | 0.00 | 67 | |
| 20260508091056 | 56 | 339 | 0.0 | 2.0 | 0.00 | 0.00 | 0.00 | 67 | |
| 20260508090554 | 56 | 342 | 1.0 | 2.0 | 0.00 | 0.00 | 0.00 | 67 | |
| 20260508090050 | 56 | 348 | 2.0 | 3.0 | 0.00 | 0.00 | 0.00 | 67 | |
| 20260508085547 | 56 | 338 | 2.0 | 3.0 | 0.00 | 0.00 | 0.00 | 67 | |
| 20260508085045 | 56 | 341 | 1.0 | 2.0 | 0.00 | 0.00 | 0.00 | 67 | |
| 20260508084541 | 57 | 334 | 1.0 | 3.0 | 0.00 | 0.00 | 0.00 | 66 | |
| 20260508084039 | 57 | 349 | 2.0 | 2.0 | 0.00 | 0.00 | 0.00 | 66 | |
| 20260508083536 | 57 | 342 | 1.0 | 3.0 | 0.00 | 0.00 | 0.00 | 65 | |
| 20260508083032 | 57 | 339 | 1.0 | 1.0 | 0.00 | 0.00 | 0.00 | 66 | |
| 20260508082528 | 57 | 338 | 1.0 | 2.0 | 0.00 | 0.00 | 0.00 | 66 | |
| 20260508082026 | 57 | 337 | 0.0 | 2.0 | 0.00 | 0.00 | 0.00 | 65 | |
| 20260508081523 | 57 | 338 | 1.0 | 2.0 | 0.00 | 0.00 | 0.00 | 65 | |
| 20260508081019 | 57 | 336 | 0.0 | 2.0 | 0.00 | 0.00 | 0.00 | 65 | |
| 20260508080517 | 57 | 338 | 0.0 | 1.0 | 0.00 | 0.00 | 0.00 | 65 | |
| 20260508080014 | 57 | 340 | 0.0 | 2.0 | 0.00 | 0.00 | 0.00 | 65 | |
| 20260508075511 | 57 | 345 | 1.0 | 3.0 | 0.00 | 0.00 | 0.00 | 65 | |
| 20260508075008 | 57 | 314 | 0.0 | 0.0 | 0.00 | 0.00 | 0.00 | 66 | |
| 20260508074506 | 56 | 334 | 0.0 | 2.0 | 0.00 | 0.00 | 0.00 | 67 | |
| 20260508074002 | 56 | 320 | 0.0 | 0.0 | 0.00 | 0.00 | 0.00 | 67 | |
| 20260508073500 | 56 | 337 | 0.0 | 1.0 | 0.00 | 0.00 | 0.00 | 67 | |
| 20260508072957 | 56 | 337 | 1.0 | 2.0 | 0.00 | 0.00 | 0.00 | 66 | |
| 20260508072453 | 56 | 12 | 2.0 | 2.0 | 0.00 | 0.00 | 0.00 | 67 | |
| 20260508071950 | 56 | 338 | 1.0 | 1.0 | 0.00 | 0.00 | 0.00 | 67 | |
| 20260508071448 | 56 | 334 | 0.0 | 0.0 | 0.00 | 0.00 | 0.00 | 68 | |
| 20260508070945 | 56 | 344 | 1.0 | 1.0 | 0.00 | 0.00 | 0.00 | 68 | |
| 20260508070443 | 55 | 340 | 1.0 | 2.0 | 0.00 | 0.00 | 0.00 | 68 | |
| 20260508065941 | 55 | 345 | 3.0 | 3.0 | 0.00 | 0.00 | 0.00 | 68 | |
| 20260508065439 | 55 | 337 | 0.0 | 2.0 | 0.00 | 0.00 | 0.00 | 69 | |
| 20260508064937 | 55 | 337 | 1.0 | 2.0 | 0.00 | 0.00 | 0.00 | 69 | |
| 20260508064434 | 55 | 334 | 0.0 | 1.0 | 0.00 | 0.00 | 0.00 | 69 | |
| 20260508063931 | 55 | 337 | 0.0 | 2.0 | 0.00 | 0.00 | 0.00 | 68 | |
| 20260508063429 | 56 | 338 | 1.0 | 1.0 | 0.00 | 0.00 | 0.00 | 68 | |
| 20260508062926 | 56 | 340 | 0.0 | 3.0 | 0.00 | 0.00 | 0.00 | 68 | |
| 20260508062424 | 56 | 335 | 1.0 | 2.0 | 0.00 | 0.00 | 0.00 | 68 | |
| 20260508061921 | 56 | 334 | 0.0 | 1.0 | 0.00 | 0.00 | 0.00 | 67 | |
| 20260508061418 | 56 | 3 | 2.0 | 2.0 | 0.00 | 0.00 | 0.00 | 67 | |
| 20260508060914 | 56 | 335 | 1.0 | 3.0 | 0.00 | 0.00 | 0.00 | 67 | |
| 20260508060412 | 56 | 340 | 0.0 | 2.0 | 0.00 | 0.00 | 0.00 | 67 | |
| 20260508055907 | 56 | 333 | 1.0 | 2.0 | 0.00 | 0.00 | 0.00 | 67 | |
| 20260508055405 | 57 | 332 | 0.0 | 2.0 | 0.00 | 0.00 | 0.00 | 67 | |
| 20260508054901 | 57 | 341 | 1.0 | 3.0 | 0.00 | 0.00 | 0.00 | 66 | |
| 20260508054358 | 57 | 342 | 1.0 | 3.0 | 0.00 | 0.00 | 0.00 | 66 | |
| 20260508053855 | 57 | 336 | 1.0 | 1.0 | 0.00 | 0.00 | 0.00 | 66 | |
| 20260508053352 | 57 | 338 | 0.0 | 1.0 | 0.00 | 0.00 | 0.00 | 66 | |
| 20260508052850 | 57 | 350 | 1.0 | 2.0 | 0.00 | 0.00 | 0.00 | 65 | |
| 20260508052347 | 57 | 336 | 1.0 | 2.0 | 0.00 | 0.00 | 0.00 | 66 | |
| 20260508051843 | 57 | 330 | 0.0 | 1.0 | 0.00 | 0.00 | 0.00 | 65 | |
| 20260508051338 | 57 | 25 | 2.0 | 2.0 | 0.00 | 0.00 | 0.00 | 65 | |
| 20260508050835 | 58 | 343 | 1.0 | 5.0 | 0.00 | 0.00 | 0.00 | 65 | |
| 20260508050333 | 58 | 348 | 0.0 | 3.0 | 0.00 | 0.00 | 0.00 | 64 | |
| 20260508045828 | 58 | 345 | 1.0 | 3.0 | 0.00 | 0.00 | 0.00 | 64 | |
| 20260508045326 | 58 | 346 | 2.0 | 2.0 | 0.00 | 0.00 | 0.00 | 64 | |
| 20260508044823 | 58 | 329 | 3.0 | 5.0 | 0.00 | 0.00 | 0.00 | 64 | |
| 20260508044320 | 58 | 338 | 1.0 | 2.0 | 0.00 | 0.00 | 0.00 | 64 | |
| 20260508043816 | 58 | 354 | 3.0 | 3.0 | 0.00 | 0.00 | 0.00 | 64 | |
| 20260508043313 | 59 | 344 | 2.0 | 3.0 | 0.00 | 0.00 | 0.00 | 63 | |
| 20260508042810 | 59 | 342 | 1.0 | 2.0 | 0.00 | 0.00 | 0.00 | 64 | |
| 20260508042308 | 59 | 338 | 1.0 | 3.0 | 0.00 | 0.00 | 0.00 | 63 | |
| 20260508041804 | 59 | 350 | 1.0 | 2.0 | 0.00 | 0.00 | 0.00 | 63 | |
| 20260508041301 | 59 | 347 | 1.0 | 5.0 | 0.00 | 0.00 | 0.00 | 62 | |
| 20260508040757 | 59 | 34 | 3.0 | 3.0 | 0.00 | 0.00 | 0.00 | 62 | |
| 20260508040255 | 59 | 345 | 2.0 | 2.0 | 0.00 | 0.00 | 0.00 | 62 | |
| 20260508035752 | 59 | 338 | 2.0 | 2.0 | 0.00 | 0.00 | 0.00 | 62 | |
| 20260508035249 | 60 | 357 | 2.0 | 3.0 | 0.00 | 0.00 | 0.00 | 62 | |
| 20260508034745 | 60 | 355 | 2.0 | 5.0 | 0.00 | 0.00 | 0.00 | 61 | |
| 20260508034243 | 60 | 338 | 1.0 | 2.0 | 0.00 | 0.00 | 0.00 | 61 | |
| 20260508033740 | 60 | 355 | 1.0 | 3.0 | 0.00 | 0.00 | 0.00 | 61 | |
| 20260508033238 | 60 | 335 | 0.0 | 5.0 | 0.00 | 0.00 | 0.00 | 61 | |
| 20260508032735 | 60 | 337 | 1.0 | 3.0 | 0.00 | 0.00 | 0.00 | 60 | |
| 20260508032232 | 60 | 330 | 0.0 | 0.0 | 0.00 | 0.00 | 0.00 | 60 | |
| 20260508031729 | 60 | 351 | 2.0 | 3.0 | 0.00 | 0.00 | 0.00 | 59 | |
| 20260508031225 | 61 | 338 | 0.0 | 3.0 | 0.00 | 0.00 | 0.00 | 59 | |
| 20260508030722 | 61 | 336 | 3.0 | 6.0 | 0.00 | 0.00 | 0.00 | 59 | |
| 20260508030220 | 61 | 341 | 0.0 | 2.0 | 0.00 | 0.00 | 0.00 | 59 | |
| 20260508025716 | 61 | 350 | 5.0 | 6.0 | 0.00 | 0.00 | 0.00 | 59 | |
| 20260508025213 | 61 | 334 | 0.0 | 2.0 | 0.00 | 0.00 | 0.00 | 59 | |
| 20260508024709 | 61 | 337 | 0.0 | 1.0 | 0.00 | 0.00 | 0.00 | 59 | |
| 20260508024206 | 61 | 336 | 0.0 | 2.0 | 0.00 | 0.00 | 0.00 | 59 | |
| 20260508023702 | 61 | 354 | 1.0 | 3.0 | 0.00 | 0.00 | 0.00 | 59 | |
| 20260508023200 | 61 | 332 | 1.0 | 2.0 | 0.00 | 0.00 | 0.00 | 58 | |
| 20260508022655 | 61 | 8 | 1.0 | 2.0 | 0.00 | 0.00 | 0.00 | 58 | |
| 20260508022153 | 61 | 335 | 0.0 | 2.0 | 0.00 | 0.00 | 0.00 | 58 | |
| 20260508021649 | 61 | 337 | 0.0 | 3.0 | 0.00 | 0.00 | 0.00 | 58 | |
| 20260508021144 | 62 | 336 | 1.0 | 2.0 | 0.00 | 0.00 | 0.00 | 57 | |
| 20260508020642 | 62 | 336 | 1.0 | 3.0 | 0.00 | 0.00 | 0.00 | 57 | |
| 20260508020140 | 62 | 333 | 1.0 | 5.0 | 0.00 | 0.00 | 0.00 | 57 | |
| 20260508015637 | 62 | 2 | 2.0 | 2.0 | 0.00 | 0.00 | 0.00 | 56 | |
| 20260508015134 | 62 | 350 | 1.0 | 5.0 | 0.00 | 0.00 | 0.00 | 56 | |
| 20260508014630 | 62 | 336 | 0.0 | 0.0 | 0.00 | 0.00 | 0.00 | 56 | |
| 20260508014126 | 63 | 335 | 1.0 | 2.0 | 0.00 | 0.00 | 0.00 | 56 | |
| 20260508013623 | 63 | 350 | 2.0 | 2.0 | 0.00 | 0.00 | 0.00 | 55 | |
| 20260508013120 | 63 | 344 | 1.0 | 5.0 | 0.00 | 0.00 | 0.00 | 55 | |
| 20260508012617 | 63 | 336 | 0.0 | 2.0 | 0.00 | 0.00 | 0.00 | 54 | |
| 20260508012114 | 64 | 334 | 1.0 | 3.0 | 0.00 | 0.00 | 0.00 | 54 | |
| 20260508011613 | 64 | 340 | 1.0 | 3.0 | 0.00 | 0.00 | 0.00 | 53 | |
| 20260508011110 | 64 | 334 | 0.0 | 1.0 | 0.00 | 0.00 | 0.00 | 53 | |
| 20260508010606 | 64 | 335 | 0.0 | 0.0 | 0.00 | 0.00 | 0.00 | 53 | |
| 20260508010105 | 64 | 336 | 0.0 | 3.0 | 0.00 | 0.00 | 0.00 | 52 | |
| 20260508005601 | 65 | 336 | 0.0 | 1.0 | 0.00 | 0.00 | 0.00 | 52 | |
| 20260508005057 | 65 | 337 | 0.0 | 0.0 | 0.00 | 0.00 | 0.00 | 51 | |
| 20260508004553 | 65 | 347 | 0.0 | 1.0 | 0.00 | 0.00 | 0.00 | 50 | |
| 20260508004050 | 65 | 336 | 0.0 | 2.0 | 0.00 | 0.00 | 0.00 | 49 | |
| 20260508003546 | 65 | 336 | 1.0 | 1.0 | 0.00 | 0.00 | 0.00 | 50 | |
| 20260508003044 | 66 | 334 | 0.0 | 0.0 | 0.00 | 0.00 | 0.00 | 49 | |
| 20260508002540 | 66 | 333 | 0.0 | 0.0 | 0.00 | 0.00 | 0.00 | 48 | |
| 20260508002038 | 66 | 329 | 0.0 | 0.0 | 0.00 | 0.00 | 0.00 | 48 | |
| 20260508001533 | 66 | 318 | 0.0 | 1.0 | 0.00 | 0.00 | 0.00 | 49 | |
| 20260508001029 | 67 | 333 | 0.0 | 0.0 | 0.00 | 0.00 | 0.00 | 47 | |
| 20260508000525 | 67 | 331 | 0.0 | 0.0 | 0.00 | 0.00 | 0.00 | 47 | |
| 20260508000023 | 68 | 327 | 0.0 | 0.0 | 0.00 | 0.00 | 0.00 | 49 | |
| 20260507235519 | 68 | 323 | 0.0 | 1.0 | 0.00 | 0.00 | 0.00 | 46 | |
| 20260507235017 | 69 | 271 | 0.0 | 1.0 | 0.00 | 0.00 | 0.00 | 47 | |
| 20260507234513 | 69 | 326 | 0.0 | 0.0 | 0.00 | 0.00 | 0.00 | 45 | |
| 20260507234010 | 69 | 315 | 0.0 | 1.0 | 0.00 | 0.00 | 0.00 | 45 | |
| 20260507233506 | 69 | 318 | 0.0 | 2.0 | 0.00 | 0.00 | 0.00 | 47 | |
| 20260507233006 | 68 | 338 | 1.0 | 1.0 | 0.00 | 0.00 | 0.00 | 46 | |
| 20260507232501 | 68 | 339 | 0.0 | 0.0 | 0.00 | 0.00 | 0.00 | 48 | |
| 20260507231959 | 68 | 326 | 0.0 | 0.0 | 0.00 | 0.00 | 0.00 | 47 | |
| 20260507231455 | 68 | 322 | 0.0 | 0.0 | 0.00 | 0.00 | 0.00 | 47 | |
| 20260507230952 | 68 | 323 | 0.0 | 0.0 | 0.00 | 0.00 | 0.00 | 48 | |
| 20260507230449 | 68 | 355 | 0.0 | 0.0 | 0.00 | 0.00 | 0.00 | 48 | |
| 20260507225944 | 68 | 352 | 0.0 | 0.0 | 0.00 | 0.00 | 0.00 | 48 | |
| 20260507225440 | 68 | 333 | 0.0 | 1.0 | 0.00 | 0.00 | 0.00 | 47 | |
| 20260507224937 | 67 | 328 | 0.0 | 2.0 | 0.00 | 0.00 | 0.00 | 47 | |
| 20260507224432 | 67 | 318 | 1.0 | 3.0 | 0.00 | 0.00 | 0.00 | 47 | |
| 20260507223930 | 67 | 335 | 0.0 | 0.0 | 0.00 | 0.00 | 0.00 | 47 | |
| 20260507223426 | 67 | 326 | 0.0 | 2.0 | 0.00 | 0.00 | 0.00 | 48 | |
| 20260507222922 | 67 | 16 | 1.0 | 2.0 | 0.00 | 0.00 | 0.00 | 48 | |
| 20260507222420 | 67 | 18 | 2.0 | 5.0 | 0.00 | 0.00 | 0.00 | 47 | |
| 20260507221916 | 67 | 10 | 0.0 | 3.0 | 0.00 | 0.00 | 0.00 | 47 | |
| 20260507221413 | 67 | 283 | 0.0 | 0.0 | 0.00 | 0.00 | 0.00 | 50 | |
| 20260507220908 | 68 | 327 | 1.0 | 3.0 | 0.00 | 0.00 | 0.00 | 47 | |
| 20260507220407 | 68 | 332 | 0.0 | 2.0 | 0.00 | 0.00 | 0.00 | 46 | |
| 20260507215903 | 68 | 347 | 3.0 | 3.0 | 0.00 | 0.00 | 0.00 | 48 | |
| 20260507215400 | 68 | 311 | 0.0 | 2.0 | 0.00 | 0.00 | 0.00 | 46 | |
| 20260507214857 | 68 | 319 | 0.0 | 5.0 | 0.00 | 0.00 | 0.00 | 48 | |
| 20260507214355 | 68 | 340 | 1.0 | 2.0 | 0.00 | 0.00 | 0.00 | 48 | |
| 20260507213850 | 68 | 323 | 1.0 | 8.0 | 0.00 | 0.00 | 0.00 | 49 | |
| 20260507213347 | 69 | 333 | 0.0 | 2.0 | 0.00 | 0.00 | 0.00 | 49 | |
| 20260507212844 | 68 | 341 | 1.0 | 6.0 | 0.00 | 0.00 | 0.00 | 48 | |
| 20260507212340 | 68 | 326 | 2.0 | 3.0 | 0.00 | 0.00 | 0.00 | 49 | |
| 20260507211836 | 68 | 0 | 1.0 | 3.0 | 0.00 | 0.00 | 0.00 | 48 |